Regional Weather Roundup
Issued by NWS Goodland, KS

Home | Current Version | Previous Version | Text Only | Print | Product List | Glossary Off
Versions: 1 2 3 4 5 6 7 8 9 10 11 12 13 14 15 16 17 18 19 20 21 22 23 24 25 26 27 28 29 30 31 32 33 34 35 36 37 38 39 40 41 42 43 44 45 46 47 48 49 50

000
ASUS43 KGLD 291959
RWRGLD

GOODLAND FORECAST AREA HOURLY WEATHER ROUNDUP
NATIONAL WEATHER SERVICE GOODLAND KS
200 PM MDT SAT AUG 29 2015

...OFFICIAL OBSERVATIONS...

CITY           SKY/WX    TMP DP  RH WIND       PRES   REMARKS
GOODLAND KS    SUNNY     89  38  16 VRB3      30.15F
HILL CITY KS   SUNNY     91  52  26 E7        30.08F
IMPERIAL NEB   SUNNY     92  47  21 S8        30.11F
MCCOOK NEB     SUNNY     91  48  22 CALM      30.09F
AKRON CO       SUNNY     89  39  17 S14G21    30.18F
BURLINGTON CO  SUNNY     86  44  23 SE9       30.19F
LIMON CO       SUNNY     83  46  27 S14       30.26F
$$

...UNOFFICIAL OBSERVATIONS...

CITY           SKY/WX    TMP DP  RH WIND       PRES   REMARKS
COLBY KS       SUNNY     91  48  22 E5        30.14F
GOVE KS          N/A     89  32  13 MISG        N/A
LENORA KS        N/A     88  32  13 MISG        N/A
NORTON KS      SUNNY     88  52  29 CALM      30.08F
SHARON SPRINGS   N/A     90  47  22 CALM        N/A
TRENTON NEB      N/A     91  32  12 S6          N/A
YUMA CO          N/A     88  43  20 SW7G15      N/A
$$


USA.gov is the U.S. government's official web portal to all federal, state and local government web resources and services.